Miscellaneous Local Product
Issued by NWS Hastings, NE

Home | Current Version | Previous Version | Text Only | Print | Product List | Glossary Off
Versions: 1 2 3 4 5 6 7 8 9 10 11 12 13 14 15 16 17 18 19 20 21 22 23 24 25 26 27 28 29 30 31 32 33 34 35 36 37 38 39 40 41 42 43 44 45 46 47 48 49 50

000
AXUS43 KGID 021402
MISGRI

GID CWA HOURLY WEATHER ROUNDUP
NATIONAL WEATHER SERVICE HASTINGS NE
900 AM CDT WED SEP 02 2015

NOTE: "FAIR" INDICATES FEW OR NO CLOUDS BELOW 12,000 FEET WITH NO
SIGNIFICANT WEATHER AND/OR OBSTRUCTIONS TO VISIBILITY.

...SOUTH CENTRAL NEBRASKA...

CITY           SKY/WX    TMP DP  RH WIND       PRES   REMARKS
GRAND ISLAND   SUNNY     76  60  57 S9        29.90S
HASTINGS       SUNNY     73  61  65 S8        29.90F
KEARNEY        SUNNY     70  59  68 S8        29.90S
ORD            SUNNY     70  62  76 E5        29.87F
YORK           SUNNY     73  66  78 SW9       29.90S
AURORA         SUNNY     73  65  75 S9        29.90S
LEXINGTON      SUNNY     70  63  77 S5        29.91S
HOLDREGE       SUNNY     72  58  62 S6        29.91S
HEBRON         SUNNY     77  62  60 SW12      29.91F

...NEBRASKA PANHANDLE...

CITY           SKY/WX    TMP DP  RH WIND       PRES   REMARKS
CHADRON        MOSUNNY   69  47  45 SW3       29.92R
ALLIANCE       MOSUNNY   61  49  64 SW3       29.97S
SCOTTSBLUFF    SUNNY     64  49  57 W3        29.99R
SIDNEY         MOSUNNY   69  44  40 MISG      30.03R

...WESTERN AND NORTH CENTRAL NEBRASKA...

CITY           SKY/WX    TMP DP  RH WIND       PRES   REMARKS
VALENTINE      MOSUNNY   65  57  75 SW6       29.86S
ONEILL         SUNNY     70  65  86 S6        29.87S
BROKEN BOW     SUNNY     71  64  78 SE5       29.89S
IMPERIAL       SUNNY     67  54  63 SW3       29.97R
NORTH PLATTE   SUNNY     68  62  81 CALM      29.91S
MCCOOK           N/A     67  59  75 SW6       29.92R

...EASTERN NEBRASKA...

CITY           SKY/WX    TMP DP  RH WIND       PRES   REMARKS
NORFOLK        SUNNY     72  67  84 S8        29.87S
SO SIOUX CITY  SUNNY     73  67  81 SE13      29.88S
TEKAMAH        SUNNY     76  70  82 S10       29.90R
COLUMBUS       SUNNY     73  63  68 S5        29.89S
ALBION         SUNNY     71  64  79 CALM      29.89S
OMAHA EPPLEY   MOSUNNY   77  68  73 S17       29.92S
OFFUTT AFB     SUNNY     76  69  78 SE14      29.92S
MILLARD        SUNNY     75  69  82 SE13G20   29.92S
LINCOLN        SUNNY     77  67  71 S13       29.91S
NEBRASKA CITY  MOSUNNY   74  65  73 S14       29.96R
BEATRICE       SUNNY     76  67  73 S10       29.93S
FALLS CITY     PTSUNNY   73  69  87 SE12G22   29.97S

...NORTHERN KANSAS...

CITY           SKY/WX    TMP DP  RH WIND       PRES   REMARKS
GOODLAND       SUNNY     73  55  53 W6        29.98S
HILL CITY      SUNNY     76  58  53 SW8       29.93S
NORTON         SUNNY     73  55  53 SW7       29.92S
PHILLIPSBURG   SUNNY     79  59  50 CALM      29.92S
SMITH CENTER   SUNNY     75  61  60 S7        29.92S
HAYS           SUNNY     77  57  50 S15       29.94S
RUSSELL        SUNNY     78  61  55 S20G25    29.93S
CONCORDIA      SUNNY     77  64  64 S15G22    29.92S
SALINA         MOSUNNY   80  63  55 S14G20    29.94S
TOPEKA         CLOUDY    73  68  84 S6        30.02S



USA.gov is the U.S. government's official web portal to all federal, state and local government web resources and services.